SCP
-0 -0 -0 0 0 0 0 0 0 0 0 0 0 0 0 0 0 0 0 0 0 0 0 0 0 0 0 0 0 0 0 0 0 0 0 0 0 0 0 0 0 0 0
-0 -0 -0 0 0 0 0 0 0 0 0 0 0 0 0 0 0 0 0 0 0 0 0 0 0 0 0 0 0 0 0 0 0 0 0 0 0 0 0 0 0 0 0
-0 -0 -0 -0 0 0 0 0 0 0 0 0 0 0 0 0 0 0 0 0 0 0 0 0 0 0 0 0 0 0 0 0 0 0 -0 -0 0 0 0 0 1 0 0
-0 -0 0 0 0 0 0 0 0 0 0 0 0 0 0 0 0 0 0 0 0 0 0 0 0 0 0 0 0 0 0 0 0 0 0 -0 0 0 0 0 1 0 0
-0 0 0 0 0 0 0 0 0 0 0 0 0 0 0 0 0 0 0 0 0 0 0 0 0 0 0 0 0 0 0 0 0 0 0 0 0 0 0 0 0 1 1
-0 -0 -0 -0 0 0 0 0 0 0 0 0 0 0 0 0 0 0 0 0 0 0 0 0 0 0 0 0 0 0 0 0 0 0 0 0 0 0 0 0 0 1 1
-0 -0 -0 -0 0 0 0 0 0 0 0 0 0 0 0 0 0 0 0 0 0 0 0 0 0 0 0 0 0 0 0 0 0 0 0 0 0 0 0 0 0 1 1
-1 -0 -0 -0 0 0 0 0 0 0 0 0 0 0 0 0 0 0 0 0 0 0 0 0 0 0 0 -0 -0 -0 -0 0 0 0 0 0 0 0 0 0 0 0 1
-1 -0 -0 0 0 0 0 0 0 0 0 0 0 0 0 0 0 0 0 0 0 0 0 0 0 -0 -0 -0 -0 -0 -0 -0 0 0 0 0 1 0 0 0 0 0 1
-0 -1 -0 0 0 0 0 0 0 0 0 0 0 0 0 -0 -0 -0 0 0 0 0 0 -0 -0 -0 0 0 -0 -0 -0 0 0 0 0 0 1 0 1 0 0 0 0
0 -0 -0 0 0 0 0 0 0 0 0 0 0 0 -0 -0 0 0 0 0 0 0 0 0 0 0 0 0 0 0 -0 0 0 0 0 0 0 0 0 0 0 0 0
0 0 0 0 0 0 0 0 0 0 0 0 0 0 0 0 0 0 0 0 0 0 0 0 0 0 0 0 0 0 0 0 0 0 0 0 0 0 0 0 0 0 0
1 1 1 1 1 0 0 0 0 0 0 -0 0 0 0 0 0 0 0 0 0 0 0 0 0 0 0 0 0 0 0 0 0 0 0 0 0 0 0 0 0 0 1
1 1 0 1 1 1 0 0 0 0 0 0 0 0 0 0 0 0 0 0 0 0 0 0 0 0 0 0 0 0 0 0 0 0 0 0 0 0 0 0 0 0 0
2 2 0 1 2 1 2 1 0 0 0 0 0 0 0 1 0 0 0 0 0 0 0 0 0 0 0 0 0 0 0 0 0 0 0 1 1 0 0 0 0 0 0
2 3 1 1 2 1 1 1 0 0 0 0 0 0 0 0 1 0 0 0 0 0 0 0 0 0 0 0 0 0 0 0 0 0 0 0 1 1 1 0 0 0 0
3 3 3 2 3 2 2 1 0 0 0 0 0 0 0 0 0 0 0 0 0 0 1 0 0 0 0 0 0 0 0 0 0 0 0 0 0 1 1 1 0 0 0
2 3 3 2 2 2 2 1 0 0 0 0 0 0 0 0 0 0 0 0 0 0 0 0 0 0 0 0 0 0 0 0 0 0 0 0 0 0 0 0 0 0 0
2 2 2 2 2 1 1 1 0 1 0 0 0 0 0 0 0 0 0 0 0 0 0 0 0 0 0 0 0 0 0 0 0 0 0 0 0 0 0 0 0 0 0
2 2 2 2 1 1 1 1 1 1 1 0 1 1 0 0 0 0 0 0 0 0 0 0 0 0 0 0 0 0 0 0 0 0 0 0 0 0 0 0 0 0 0
2 2 1 2 1 1 0 0 1 0 1 1 1 0 0 0 0 0 0 0 0 0 0 0 0 0 0 0 0 0 0 0 0 0 0 0 0 0 0 0 0 0 0
1 1 1 1 1 0 1 1 0 0 1 1 0 0 0 0 0 0 0 0 0 0 0 0 0 0 0 0 0 0 0 0 0 0 0 0 0 0 0 0 0 0 0
1 1 1 1 1 1 1 1 1 1 1 0 0 0 0 0 0 0 0 0 0 0 0 0 0 0 0 0 0 0 0 0 0 0 0 0 0 0 0 0 0 0 -0
1 1 1 1 1 1 1 1 1 0 0 0 0 0 0 0 0 0 0 0 0 0 0 0 0 0 0 0 0 0 0 0 0 0 0 0 0 0 0 -0 -0 -0 -0
0 1 1 1 1 1 1 1 0 0 0 0 0 0 0 0 0 0 0 0 0 0 0 0 0 0 0 0 0 0 0 0 0 0 0 0 0 0 0 -0 -0 -0 -0
0 0 0 1 1 0 1 1 1 0 0 0 0 0 0 0 0 0 0 0 0 0 0 0 0 0 0 0 0 0 0 0 0 0 0 0 0 0 0 0 -0 -0 0
Wind_Speed_500mb
26 29 33 32 31 27 23 18 16 14 13 13 10 9 9 6 5 4 5 5 6 8 9 10 10 10 10 11 12 13 15 16 17 17 15 15 12 12 8 5 3 4 6
34 30 34 32 29 28 24 21 18 16 14 16 15 15 9 6 6 4 3 4 5 7 9 10 12 13 13 15 16 17 18 19 18 18 17 14 15 16 15 13 11 6 8
29 34 38 33 30 25 21 17 15 12 12 11 7 4 2 3 2 2 4 6 10 12 15 16 18 19 20 21 21 21 21 20 19 18 14 7 14 17 27 24 18 15 10
28 31 36 32 28 24 20 15 12 10 8 6 6 5 4 2 2 4 7 9 11 14 15 16 17 18 19 19 20 21 23 23 21 18 10 3 11 22 22 28 22 18 14
21 27 32 30 28 25 22 18 15 11 9 8 7 5 2 2 5 7 10 11 13 13 14 14 15 16 17 17 18 18 19 18 17 13 4 3 4 18 23 28 23 23 20
20 34 25 28 25 20 18 16 12 11 10 8 6 3 2 4 6 8 9 10 12 13 13 14 15 15 16 17 18 19 19 19 15 2 8 24 29 46 35 35 27 27 23
34 35 20 25 24 21 18 17 15 13 10 6 3 4 4 6 6 7 8 8 9 11 13 13 15 17 19 20 21 22 22 20 14 3 5 12 17 29 32 37 34 32 31
33 26 17 27 24 23 23 20 16 12 9 8 6 5 5 4 3 3 6 9 12 13 14 15 16 17 17 19 21 24 28 27 18 15 2 26 30 32 36 35 41 37 35
31 39 19 30 29 25 23 17 14 12 12 12 9 6 4 3 6 9 9 11 13 13 14 17 20 25 28 26 20 25 36 37 20 4 13 23 31 31 35 38 38 39 38
32 29 13 24 24 23 20 15 14 14 13 11 10 6 5 10 22 13 10 16 24 18 22 20 24 29 31 26 12 21 36 41 6 13 29 26 30 30 30 40 40 37 42
26 35 32 32 12 20 16 11 13 12 13 13 10 9 15 9 16 5 8 25 24 19 31 19 26 28 31 29 22 33 33 33 21 28 42 38 35 43 47 51 47 36 41
25 22 36 28 29 30 25 12 9 15 14 11 8 11 10 9 4 6 24 21 24 17 27 24 29 28 27 32 41 26 36 35 42 43 47 44 43 45 43 45 50 36 36
31 20 26 27 23 24 22 11 3 4 6 10 8 5 3 9 7 10 18 23 20 26 31 29 24 29 18 27 32 28 37 39 43 42 43 38 34 44 49 49 46 38 31
33 32 23 26 19 27 26 15 18 26 24 29 22 14 21 16 19 5 18 17 13 15 26 27 36 31 40 40 43 38 36 45 39 36 46 50 48 44 50 52 49 37 35
31 32 21 22 26 30 42 27 26 33 38 35 33 28 25 24 19 18 24 24 29 30 34 38 46 41 43 44 46 49 46 55 44 49 51 57 56 50 49 49 46 40 40
30 28 21 14 23 30 29 30 35 32 33 30 32 31 33 28 31 24 27 30 36 40 40 37 35 38 50 50 46 54 54 51 57 57 55 56 53 53 53 55 49 45 43
22 24 29 25 27 27 40 43 43 43 39 41 39 34 38 36 28 26 31 37 39 34 26 32 39 41 41 41 54 39 39 46 51 53 65 63 54 47 50 52 45 41 42
24 24 31 33 25 33 36 39 38 38 38 46 33 25 29 27 25 29 33 31 21 20 24 29 28 25 39 38 45 54 54 45 47 57 62 57 56 51 31 34 39 37 42
18 11 13 19 31 27 29 27 35 31 30 23 17 10 14 27 18 23 17 14 18 22 22 23 34 43 48 44 46 46 46 53 61 54 66 69 70 73 66 39 32 37 36
19 17 21 24 19 14 18 19 15 18 18 14 16 20 24 12 9 11 10 12 16 18 29 36 40 40 45 36 44 45 44 46 48 51 61 56 61 61 63 71 52 44 37
22 20 19 21 21 18 13 13 12 12 10 9 12 10 8 2 4 6 10 12 21 24 31 29 38 43 33 34 46 45 45 41 55 38 42 49 52 49 52 46 64 60 44
22 22 23 18 23 14 11 11 10 8 7 9 8 9 11 8 6 8 18 16 25 26 15 32 38 33 33 32 40 43 44 53 63 60 42 46 38 44 52 46 41 25 52
26 31 23 28 21 24 13 8 13 9 9 6 6 10 12 5 5 12 17 22 25 19 15 29 27 31 35 34 33 35 37 33 70 60 43 33 36 45 43 15 25 38 46
29 32 29 27 24 21 19 10 8 6 9 10 5 7 6 16 20 16 21 26 27 16 19 23 25 31 26 34 34 31 32 39 43 48 55 38 37 43 38 7 16 9 17
31 29 28 22 17 15 13 9 7 8 1 14 10 5 16 17 18 11 18 32 29 15 19 25 27 28 26 28 31 35 33 32 32 39 45 52 43 43 35 33 27 27 19
27 24 21 18 14 12 12 12 20 23 16 11 11 4 3 11 8 14 24 36 24 20 21 21 29 25 26 28 33 30 29 33 35 33 42 44 57 41 43 42 26 7 23
Wind_Direction_500mb
187 178 168 161 160 161 162 162 156 153 146 144 142 122 113 134 122 89 69 28 360 349 347 337 327 322 309 296 286 283 281 279 281 286 289 295 305 321 309 291 272 331 299
186 175 167 161 161 167 165 166 167 160 153 135 128 133 131 85 81 70 29 360 336 329 329 322 321 318 310 306 302 297 293 293 293 293 294 304 291 319 322 280 271 260 276
194 181 170 169 166 168 162 167 158 157 148 147 150 161 106 88 76 25 354 352 340 335 333 332 326 320 316 310 308 304 301 300 299 297 301 331 288 278 303 302 270 260 273
186 173 170 171 177 181 175 166 152 153 153 165 168 155 139 119 51 5 353 347 350 347 348 343 337 331 326 322 317 309 303 298 292 292 305 81 299 267 282 293 269 261 256
192 176 173 168 173 175 168 164 163 162 161 162 167 160 142 10 10 9 17 10 3 358 357 353 349 341 333 328 323 319 317 318 308 292 303 49 266 270 279 282 272 250 245
151 171 173 173 173 173 170 170 171 167 171 177 176 153 97 65 36 29 25 15 8 4 3 360 360 355 348 341 336 332 329 328 329 169 331 276 253 271 281 280 281 258 250
145 184 184 186 180 179 181 184 180 182 171 168 166 130 84 59 41 35 25 14 10 4 2 356 352 350 347 345 342 340 339 338 328 166 5 304 273 262 267 275 279 258 248
174 192 210 197 189 190 189 182 179 180 175 165 153 118 84 67 59 53 20 8 4 356 352 351 347 342 338 336 340 346 345 339 331 270 142 268 265 269 272 275 281 257 247
168 174 196 199 190 194 185 180 183 184 178 164 146 112 107 74 50 33 11 15 2 346 342 341 343 341 340 336 344 5 2 347 316 174 351 261 258 260 273 285 296 258 244
169 195 208 176 196 196 185 186 185 185 176 154 138 124 89 87 32 17 20 356 345 344 355 351 1 359 352 341 329 345 356 352 360 344 284 276 280 283 282 288 295 267 247
168 195 175 166 139 156 199 204 196 186 168 162 144 105 76 52 30 346 345 356 1 12 1 353 345 353 347 345 326 312 337 342 330 315 289 281 283 285 292 295 294 275 249
173 177 183 178 153 182 210 220 243 191 167 165 108 92 62 41 174 204 317 324 338 342 348 341 334 339 330 348 332 330 323 322 319 313 296 281 279 285 291 296 302 271 251
167 178 184 183 167 170 196 174 173 170 124 107 139 217 360 206 247 299 313 323 328 315 348 328 328 328 328 307 297 309 301 297 297 296 306 303 296 296 298 301 304 270 250
168 171 172 171 196 182 198 176 203 185 168 187 183 191 205 205 236 226 266 259 291 296 303 307 299 307 302 307 305 291 301 294 285 280 291 298 301 302 302 301 298 271 255
168 173 189 210 195 190 188 178 209 198 184 194 193 207 225 225 249 243 268 272 277 288 286 285 307 299 307 309 305 292 288 289 289 274 276 275 285 292 294 295 292 281 252
175 173 182 215 196 196 176 199 206 190 208 219 234 244 236 253 248 237 260 278 292 297 291 305 320 315 316 309 287 287 283 281 285 279 276 265 274 273 287 294 287 282 253
173 198 195 210 223 221 203 210 215 217 228 239 264 265 240 278 251 260 280 288 302 301 298 302 307 316 312 314 317 318 308 288 288 297 280 275 265 266 277 285 278 271 261
200 219 215 223 234 241 234 225 223 226 239 251 261 263 273 256 255 273 287 302 299 333 327 331 315 300 300 311 313 316 313 305 291 285 290 275 260 254 265 243 243 249 256
178 191 190 225 237 243 229 220 221 232 247 261 243 227 224 255 267 277 308 318 329 325 319 300 293 298 301 304 308 302 305 316 308 299 300 291 284 274 263 259 251 249 258
180 191 216 211 226 226 193 198 194 228 245 229 197 212 246 241 273 309 2 331 312 289 281 289 300 300 302 315 316 312 314 312 315 318 311 300 296 296 287 268 262 249 253
170 173 179 201 183 175 150 146 184 198 209 227 221 196 259 88 84 302 236 284 293 280 308 309 303 306 322 324 319 328 325 319 317 323 315 318 309 304 303 283 265 261 254
168 164 164 162 141 127 163 193 161 186 210 213 200 243 135 153 260 288 273 278 289 316 334 311 313 320 322 332 333 333 333 329 327 328 332 319 310 322 327 278 247 249 243
162 159 166 155 157 160 168 168 156 188 183 209 214 176 147 160 220 292 296 312 324 334 331 312 325 328 333 339 340 339 340 334 330 339 345 334 322 325 337 269 219 241 237
153 154 171 175 176 163 165 178 177 187 217 107 193 246 215 292 315 293 308 333 330 358 309 326 342 329 338 339 343 342 330 332 331 330 332 349 337 317 323 308 174 164 269
151 168 178 185 181 154 147 159 135 127 85 105 148 262 303 307 322 287 305 325 324 343 333 336 330 346 343 335 337 330 338 338 324 322 317 346 338 343 329 294 298 275 278
163 171 170 173 155 150 144 163 172 180 162 163 199 334 295 354 332 246 298 316 328 324 321 340 341 2 343 333 331 339 334 330 317 312 317 336 328 332 328 330 306 258 251
Wind_Speed_850mb
26 29 33 32 31 27 23 18 16 14 13 13 10 9 9 6 5 4 5 5 6 8 9 10 10 10 10 11 12 13 15 16 17 17 15 15 12 12 8 5 3 4 6
34 30 34 32 29 28 24 21 18 16 14 16 15 15 9 6 6 4 3 4 5 7 9 10 12 13 13 15 16 17 18 19 18 18 17 14 15 16 15 13 11 6 8
29 34 38 33 30 25 21 17 15 12 12 11 7 4 2 3 2 2 4 6 10 12 15 16 18 19 20 21 21 21 21 20 19 18 14 7 14 17 27 24 18 15 10
28 31 36 32 28 24 20 15 12 10 8 6 6 5 4 2 2 4 7 9 11 14 15 16 17 18 19 19 20 21 23 23 21 18 10 3 11 22 22 28 22 18 14
21 27 32 30 28 25 22 18 15 11 9 8 7 5 2 2 5 7 10 11 13 13 14 14 15 16 17 17 18 18 19 18 17 13 4 3 4 18 23 28 23 23 20
20 34 25 28 25 20 18 16 12 11 10 8 6 3 2 4 6 8 9 10 12 13 13 14 15 15 16 17 18 19 19 19 15 2 8 24 29 46 35 35 27 27 23
34 35 20 25 24 21 18 17 15 13 10 6 3 4 4 6 6 7 8 8 9 11 13 13 15 17 19 20 21 22 22 20 14 3 5 12 17 29 32 37 34 32 31
33 26 17 27 24 23 23 20 16 12 9 8 6 5 5 4 3 3 6 9 12 13 14 15 16 17 17 19 21 24 28 27 18 15 2 26 30 32 36 35 41 37 35
31 39 19 30 29 25 23 17 14 12 12 12 9 6 4 3 6 9 9 11 13 13 14 17 20 25 28 26 20 25 36 37 20 4 13 23 31 31 35 38 38 39 38
32 29 13 24 24 23 20 15 14 14 13 11 10 6 5 10 22 13 10 16 24 18 22 20 24 29 31 26 12 21 36 41 6 13 29 26 30 30 30 40 40 37 42
26 35 32 32 12 20 16 11 13 12 13 13 10 9 15 9 16 5 8 25 24 19 31 19 26 28 31 29 22 33 33 33 21 28 42 38 35 43 47 51 47 36 41
25 22 36 28 29 30 25 12 9 15 14 11 8 11 10 9 4 6 24 21 24 17 27 24 29 28 27 32 41 26 36 35 42 43 47 44 43 45 43 45 50 36 36
31 20 26 27 23 24 22 11 3 4 6 10 8 5 3 9 7 10 18 23 20 26 31 29 24 29 18 27 32 28 37 39 43 42 43 38 34 44 49 49 46 38 31
33 32 23 26 19 27 26 15 18 26 24 29 22 14 21 16 19 5 18 17 13 15 26 27 36 31 40 40 43 38 36 45 39 36 46 50 48 44 50 52 49 37 35
31 32 21 22 26 30 42 27 26 33 38 35 33 28 25 24 19 18 24 24 29 30 34 38 46 41 43 44 46 49 46 55 44 49 51 57 56 50 49 49 46 40 40
30 28 21 14 23 30 29 30 35 32 33 30 32 31 33 28 31 24 27 30 36 40 40 37 35 38 50 50 46 54 54 51 57 57 55 56 53 53 53 55 49 45 43
22 24 29 25 27 27 40 43 43 43 39 41 39 34 38 36 28 26 31 37 39 34 26 32 39 41 41 41 54 39 39 46 51 53 65 63 54 47 50 52 45 41 42
24 24 31 33 25 33 36 39 38 38 38 46 33 25 29 27 25 29 33 31 21 20 24 29 28 25 39 38 45 54 54 45 47 57 62 57 56 51 31 34 39 37 42
18 11 13 19 31 27 29 27 35 31 30 23 17 10 14 27 18 23 17 14 18 22 22 23 34 43 48 44 46 46 46 53 61 54 66 69 70 73 66 39 32 37 36
19 17 21 24 19 14 18 19 15 18 18 14 16 20 24 12 9 11 10 12 16 18 29 36 40 40 45 36 44 45 44 46 48 51 61 56 61 61 63 71 52 44 37
22 20 19 21 21 18 13 13 12 12 10 9 12 10 8 2 4 6 10 12 21 24 31 29 38 43 33 34 46 45 45 41 55 38 42 49 52 49 52 46 64 60 44
22 22 23 18 23 14 11 11 10 8 7 9 8 9 11 8 6 8 18 16 25 26 15 32 38 33 33 32 40 43 44 53 63 60 42 46 38 44 52 46 41 25 52
26 31 23 28 21 24 13 8 13 9 9 6 6 10 12 5 5 12 17 22 25 19 15 29 27 31 35 34 33 35 37 33 70 60 43 33 36 45 43 15 25 38 46
29 32 29 27 24 21 19 10 8 6 9 10 5 7 6 16 20 16 21 26 27 16 19 23 25 31 26 34 34 31 32 39 43 48 55 38 37 43 38 7 16 9 17
31 29 28 22 17 15 13 9 7 8 1 14 10 5 16 17 18 11 18 32 29 15 19 25 27 28 26 28 31 35 33 32 32 39 45 52 43 43 35 33 27 27 19
27 24 21 18 14 12 12 12 20 23 16 11 11 4 3 11 8 14 24 36 24 20 21 21 29 25 26 28 33 30 29 33 35 33 42 44 57 41 43 42 26 7 23
Wind_Direction_850mb
187 178 168 161 160 161 162 162 156 153 146 144 142 122 113 134 122 89 69 28 360 349 347 337 327 322 309 296 286 283 281 279 281 286 289 295 305 321 309 291 272 331 299
186 175 167 161 161 167 165 166 167 160 153 135 128 133 131 85 81 70 29 360 336 329 329 322 321 318 310 306 302 297 293 293 293 293 294 304 291 319 322 280 271 260 276
194 181 170 169 166 168 162 167 158 157 148 147 150 161 106 88 76 25 354 352 340 335 333 332 326 320 316 310 308 304 301 300 299 297 301 331 288 278 303 302 270 260 273
186 173 170 171 177 181 175 166 152 153 153 165 168 155 139 119 51 5 353 347 350 347 348 343 337 331 326 322 317 309 303 298 292 292 305 81 299 267 282 293 269 261 256
192 176 173 168 173 175 168 164 163 162 161 162 167 160 142 10 10 9 17 10 3 358 357 353 349 341 333 328 323 319 317 318 308 292 303 49 266 270 279 282 272 250 245
151 171 173 173 173 173 170 170 171 167 171 177 176 153 97 65 36 29 25 15 8 4 3 360 360 355 348 341 336 332 329 328 329 169 331 276 253 271 281 280 281 258 250
145 184 184 186 180 179 181 184 180 182 171 168 166 130 84 59 41 35 25 14 10 4 2 356 352 350 347 345 342 340 339 338 328 166 5 304 273 262 267 275 279 258 248
174 192 210 197 189 190 189 182 179 180 175 165 153 118 84 67 59 53 20 8 4 356 352 351 347 342 338 336 340 346 345 339 331 270 142 268 265 269 272 275 281 257 247
168 174 196 199 190 194 185 180 183 184 178 164 146 112 107 74 50 33 11 15 2 346 342 341 343 341 340 336 344 5 2 347 316 174 351 261 258 260 273 285 296 258 244
169 195 208 176 196 196 185 186 185 185 176 154 138 124 89 87 32 17 20 356 345 344 355 351 1 359 352 341 329 345 356 352 360 344 284 276 280 283 282 288 295 267 247
168 195 175 166 139 156 199 204 196 186 168 162 144 105 76 52 30 346 345 356 1 12 1 353 345 353 347 345 326 312 337 342 330 315 289 281 283 285 292 295 294 275 249
173 177 183 178 153 182 210 220 243 191 167 165 108 92 62 41 174 204 317 324 338 342 348 341 334 339 330 348 332 330 323 322 319 313 296 281 279 285 291 296 302 271 251
167 178 184 183 167 170 196 174 173 170 124 107 139 217 360 206 247 299 313 323 328 315 348 328 328 328 328 307 297 309 301 297 297 296 306 303 296 296 298 301 304 270 250
168 171 172 171 196 182 198 176 203 185 168 187 183 191 205 205 236 226 266 259 291 296 303 307 299 307 302 307 305 291 301 294 285 280 291 298 301 302 302 301 298 271 255
168 173 189 210 195 190 188 178 209 198 184 194 193 207 225 225 249 243 268 272 277 288 286 285 307 299 307 309 305 292 288 289 289 274 276 275 285 292 294 295 292 281 252
175 173 182 215 196 196 176 199 206 190 208 219 234 244 236 253 248 237 260 278 292 297 291 305 320 315 316 309 287 287 283 281 285 279 276 265 274 273 287 294 287 282 253
173 198 195 210 223 221 203 210 215 217 228 239 264 265 240 278 251 260 280 288 302 301 298 302 307 316 312 314 317 318 308 288 288 297 280 275 265 266 277 285 278 271 261
200 219 215 223 234 241 234 225 223 226 239 251 261 263 273 256 255 273 287 302 299 333 327 331 315 300 300 311 313 316 313 305 291 285 290 275 260 254 265 243 243 249 256
178 191 190 225 237 243 229 220 221 232 247 261 243 227 224 255 267 277 308 318 329 325 319 300 293 298 301 304 308 302 305 316 308 299 300 291 284 274 263 259 251 249 258
180 191 216 211 226 226 193 198 194 228 245 229 197 212 246 241 273 309 2 331 312 289 281 289 300 300 302 315 316 312 314 312 315 318 311 300 296 296 287 268 262 249 253
170 173 179 201 183 175 150 146 184 198 209 227 221 196 259 88 84 302 236 284 293 280 308 309 303 306 322 324 319 328 325 319 317 323 315 318 309 304 303 283 265 261 254
168 164 164 162 141 127 163 193 161 186 210 213 200 243 135 153 260 288 273 278 289 316 334 311 313 320 322 332 333 333 333 329 327 328 332 319 310 322 327 278 247 249 243
162 159 166 155 157 160 168 168 156 188 183 209 214 176 147 160 220 292 296 312 324 334 331 312 325 328 333 339 340 339 340 334 330 339 345 334 322 325 337 269 219 241 237
153 154 171 175 176 163 165 178 177 187 217 107 193 246 215 292 315 293 308 333 330 358 309 326 342 329 338 339 343 342 330 332 331 330 332 349 337 317 323 308 174 164 269
151 168 178 185 181 154 147 159 135 127 85 105 148 262 303 307 322 287 305 325 324 343 333 336 330 346 343 335 337 330 338 338 324 322 317 346 338 343 329 294 298 275 278
163 171 170 173 155 150 144 163 172 180 162 163 199 334 295 354 332 246 298 316 328 324 321 340 341 2 343 333 331 339 334 330 317 312 317 336 328 332 328 330 306 258 251